Theta_e
281 281 281 281 281 281 281 281 281 281 281 281 282 282 282 282 282 282 282 282 282 282 283 283 284 284 284 284 284 285 285 285 282 284 286 287 285 282 283 284 284 283 283
280 281 281 281 281 280 280 281 281 281 281 281 281 281 281 282 281 281 281 281 281 282 283 282 283 285 283 284 283 284 284 284 283 282 284 284 284 281 282 283 282 283 283
280 280 280 280 280 280 280 281 281 280 281 281 281 280 281 281 281 281 281 281 281 281 282 282 283 283 282 283 282 283 283 284 283 283 283 285 285 281 280 281 281 281 283
280 280 280 280 280 280 280 281 281 281 280 280 280 280 280 280 280 281 281 280 280 281 282 282 282 283 283 283 282 282 283 282 282 283 283 282 282 280 278 277 278 280 281
276 275 278 280 280 279 280 280 280 280 281 280 280 280 280 280 280 280 281 281 280 280 282 283 283 283 285 285 284 283 281 282 282 282 282 281 279 278 278 279 279 279 280
270 272 273 273 275 276 278 278 279 279 279 279 279 279 279 280 282 283 283 281 281 281 280 282 283 283 284 285 286 287 287 282 282 281 281 280 280 279 281 280 278 277 277
267 270 272 270 272 272 273 275 276 276 277 277 278 278 277 278 282 283 283 281 281 281 281 281 281 283 283 283 284 286 287 288 288 284 282 282 281 281 279 279 278 279 279
265 270 271 271 270 272 273 273 273 274 273 275 275 276 276 277 282 283 282 280 279 279 280 281 281 282 282 283 282 282 282 282 283 285 284 283 281 278 277 279 280 280 278
270 271 272 271 272 273 272 273 274 272 274 274 275 275 275 275 281 282 281 278 279 278 279 281 281 281 283 285 284 281 281 280 283 285 286 286 285 285 285 282 278 276 273
275 274 274 274 272 273 274 274 274 272 274 275 275 275 274 274 279 281 280 278 277 277 279 281 282 282 284 286 284 282 280 281 281 281 278 277 280 278 283 282 279 274 273
277 276 274 274 274 274 274 273 273 271 273 272 273 274 273 274 274 279 280 278 278 278 279 280 281 284 285 286 286 283 282 282 281 281 275 272 272 275 270 277 276 276 273
277 277 276 276 277 278 275 275 274 272 271 271 273 274 274 273 275 278 279 280 281 279 280 281 282 284 285 286 285 286 286 285 282 278 277 274 273 268 274 271 272 273 271
274 274 274 275 276 276 275 275 274 274 273 273 275 274 273 274 274 278 279 279 279 278 281 281 283 284 285 285 286 286 283 282 281 279 278 276 270 272 271 270 270 268 267
271 271 272 272 273 273 274 274 274 273 273 274 274 273 273 273 273 274 274 275 276 277 279 280 281 282 284 284 280 282 278 278 280 279 277 275 270 268 270 270 271 263 266
269 270 271 272 271 272 273 273 274 275 276 275 275 274 272 271 274 277 278 277 277 278 278 278 278 279 279 280 277 277 275 274 273 270 267 269 271 273 271 270 268 263 265
269 271 271 271 272 272 272 272 277 279 280 281 281 279 278 279 280 280 279 279 280 280 277 276 276 277 277 277 277 276 274 273 272 268 267 272 274 272 272 269 265 259 259
269 270 270 270 271 271 271 271 270 274 278 278 279 279 278 278 278 278 278 278 279 279 275 276 276 277 276 276 277 277 275 273 271 267 270 273 274 272 270 267 262 259 259
266 267 268 269 269 270 270 271 271 270 269 270 273 274 275 276 276 276 276 276 273 274 275 277 277 277 275 274 273 273 269 271 270 268 272 275 272 272 268 266 260 258 257
266 265 265 267 268 270 270 271 270 269 269 268 269 270 270 272 272 273 274 271 271 272 275 278 277 273 274 274 272 271 271 271 268 270 273 273 272 270 266 264 260 258 256
263 264 265 266 268 269 270 269 268 268 267 267 266 266 266 262 262 263 265 268 272 273 276 279 273 274 275 272 271 269 266 265 269 273 274 272 271 269 266 260 259 256 255
263 262 266 268 268 268 268 267 267 267 266 266 266 266 270 267 266 266 266 267 269 273 275 276 274 274 273 271 270 267 265 268 272 274 274 272 268 266 261 258 254 254 256
263 265 263 265 266 267 267 267 267 266 265 265 264 265 269 265 264 264 265 266 269 271 276 277 276 276 273 270 269 267 268 270 273 274 272 269 266 262 258 257 257 254 254
260 262 265 265 265 265 265 265 264 264 264 264 263 262 262 261 263 263 264 267 270 273 277 275 277 273 271 271 269 269 269 270 272 273 269 265 263 260 259 257 257 255 254
257 260 262 263 263 263 262 262 263 263 262 262 261 261 261 261 263 264 264 266 268 271 276 273 275 273 270 268 268 269 268 269 271 270 268 264 261 259 259 256 256 253 254
260 262 262 262 261 261 261 261 262 262 261 261 260 260 261 262 263 263 265 267 270 273 274 274 273 272 270 267 266 266 267 269 268 266 265 264 262 260 260 259 256 252 250
261 262 261 261 261 261 261 261 261 261 261 261 261 261 262 262 263 264 266 268 271 275 272 271 271 270 268 266 265 265 266 267 265 264 265 264 262 260 259 258 255 254 250
Wind_Speed
1 1 2 2 2 3 3 3 4 4 4 4 5 5 5 6 5 5 5 6 6 6 6 7 9 9 6 6 6 7 9 10 13 9 9 11 10 7 9 9 10 11 11
2 2 3 3 3 4 4 4 3 5 4 4 4 5 6 6 6 6 6 6 6 8 8 6 10 7 8 9 7 10 10 10 9 16 10 8 11 4 8 12 10 10 11
3 3 3 3 3 4 5 5 5 5 6 5 5 5 6 7 8 7 6 8 8 8 9 9 10 8 10 8 8 8 8 8 9 10 11 8 9 5 7 8 9 11 9
4 3 4 4 4 5 5 5 5 5 6 6 6 6 6 7 8 9 8 8 8 9 9 10 11 10 11 10 8 10 9 8 8 9 10 11 8 5 3 7 10 7 11
4 3 5 5 4 4 5 5 6 5 6 6 7 6 6 6 7 8 8 9 9 10 11 12 12 11 16 16 8 9 8 8 8 9 11 10 8 5 5 6 9 11 12
4 6 5 5 4 5 5 5 6 6 6 6 7 8 8 6 15 18 16 10 12 13 14 15 13 16 15 21 22 23 15 9 12 10 10 12 13 6 7 9 8 10 9
5 6 7 4 5 6 5 5 6 7 6 7 8 8 9 9 19 20 20 10 12 13 14 15 14 11 14 13 16 20 18 20 22 11 12 14 13 8 4 9 10 10 10
5 6 6 5 6 6 5 6 6 4 6 7 8 9 9 9 20 21 21 11 10 11 13 14 13 15 15 13 10 11 10 10 11 9 10 11 7 3 5 8 12 7 6
7 7 7 6 6 6 7 7 7 5 6 7 8 9 10 10 20 21 19 11 12 13 12 13 12 14 18 19 11 11 11 10 10 18 22 20 18 19 16 8 6 6 7
7 8 6 6 6 7 8 8 6 5 8 7 9 9 9 12 18 21 18 8 12 10 11 11 16 15 21 21 13 10 11 9 5 9 5 9 11 8 15 8 5 6 3
6 6 6 6 7 8 8 6 7 7 7 8 10 10 10 10 12 21 21 10 9 10 10 8 8 19 20 20 20 10 11 7 8 7 6 5 4 5 3 4 4 5 3
5 6 6 7 7 7 7 8 7 6 8 9 10 10 8 9 12 16 19 20 19 13 11 7 8 19 22 21 17 15 14 16 6 5 5 4 4 3 4 3 4 5 4
4 7 7 7 8 8 8 9 7 7 7 9 9 9 8 7 6 17 20 21 21 15 9 12 22 23 22 18 20 17 10 7 5 5 6 7 3 3 2 2 3 4 4
7 7 6 7 8 7 6 7 7 8 8 9 9 9 8 7 8 7 8 9 14 13 15 10 13 18 19 15 6 9 3 3 5 5 6 5 2 1 1 1 2 2 1
6 6 7 6 7 8 7 7 8 10 10 10 10 9 9 10 9 15 16 10 8 11 12 10 9 8 7 5 3 5 3 2 3 2 2 2 4 2 1 1 0 1 1
5 5 6 6 7 6 7 10 17 23 25 26 27 20 10 20 27 27 26 27 27 27 12 10 11 9 8 5 5 5 3 5 4 3 2 4 5 3 2 1 2 1 2
8 7 6 6 7 8 8 9 12 13 22 23 24 25 26 26 27 26 28 28 28 23 12 10 10 8 8 7 6 6 5 5 4 4 4 5 3 2 3 1 1 1 1
7 8 5 6 7 8 9 10 9 10 12 11 13 18 20 24 25 26 27 25 13 12 11 10 9 9 7 7 5 6 4 3 4 4 5 5 4 3 2 2 2 2 1
6 4 4 4 6 9 9 10 10 11 11 12 10 11 11 21 22 24 26 12 11 10 9 9 5 5 6 6 5 5 5 4 5 5 6 4 4 3 2 2 3 2 3
5 8 6 5 7 8 9 9 10 10 10 10 9 9 7 4 7 9 8 9 9 10 10 6 5 6 7 6 5 5 4 4 6 6 5 5 4 4 3 4 3 3 1
4 3 5 6 8 9 10 10 10 10 10 10 9 9 20 12 9 10 10 9 10 9 7 7 6 7 6 6 5 5 5 6 6 6 6 5 5 4 3 3 3 2 3
3 4 3 7 8 9 10 10 10 10 11 11 10 10 21 10 10 11 9 11 10 10 10 8 6 7 7 7 7 7 7 7 7 6 6 6 5 5 4 4 3 2 4
4 5 7 7 8 11 10 10 10 10 10 10 9 9 8 8 10 10 10 10 10 10 9 7 7 5 4 5 6 8 9 9 8 7 7 6 6 6 5 4 4 4 3
4 5 8 8 8 9 10 10 10 12 10 9 9 9 9 10 10 11 11 11 11 11 10 6 6 8 6 6 5 5 4 5 6 8 11 8 7 7 5 4 3 4 4
4 7 8 9 9 9 10 10 10 10 9 9 9 9 9 10 10 11 11 10 10 12 7 6 5 7 9 10 8 8 8 11 9 10 7 9 10 9 7 6 5 4 4
7 8 8 8 9 9 10 10 10 9 9 9 9 9 9 9 10 10 10 11 11 11 6 5 6 8 9 8 9 10 11 13 12 11 9 10 10 7 6 7 8 4 4
Wind_Direction
1 352 345 318 311 304 301 303 305 301 308 313 311 304 301 302 297 290 282 282 274 272 263 248 250 245 236 229 223 225 238 243 261 271 269 285 288 300 301 301 295 293 291
247 246 271 295 313 315 307 300 297 304 306 297 299 299 299 297 293 287 287 282 271 275 270 255 253 254 237 239 227 234 239 237 252 273 275 277 285 274 289 299 299 293 290
244 253 274 288 292 291 293 302 308 304 300 302 299 300 301 299 297 292 275 282 277 265 268 264 264 251 251 242 230 235 237 241 242 259 274 280 288 287 292 287 290 293 286
249 267 284 284 280 281 280 272 269 262 263 267 266 266 270 281 285 287 287 281 277 277 272 266 263 253 251 250 237 237 237 242 244 254 266 279 277 273 249 291 302 294 302
227 235 253 263 260 261 260 258 260 257 261 258 271 266 261 269 281 290 285 283 283 287 286 282 276 266 255 250 246 247 232 239 246 252 269 274 275 276 281 296 295 308 303
207 238 248 246 253 271 278 280 280 277 268 261 261 261 271 272 286 295 295 287 288 292 292 290 285 282 275 269 263 261 246 234 249 258 264 266 274 271 278 293 298 307 310
225 247 255 236 250 260 261 261 263 268 272 269 267 265 263 267 285 294 296 286 285 283 286 285 286 281 282 278 268 268 264 261 248 245 252 262 273 272 293 292 290 279 282
246 255 258 245 246 264 264 261 261 241 249 264 267 263 264 262 279 292 297 288 274 268 270 276 277 282 279 280 253 255 247 248 255 261 260 266 263 241 227 258 274 281 288
252 249 248 233 248 256 261 263 261 243 262 255 258 263 263 267 278 290 298 289 280 275 270 273 274 278 276 275 262 246 254 248 241 254 260 259 261 265 274 287 282 293 304
246 245 242 237 233 245 251 258 258 234 258 265 269 258 250 263 275 290 294 279 281 280 273 266 267 268 268 269 259 249 251 265 257 257 260 273 272 264 276 270 280 268 269
240 236 240 238 240 240 252 242 255 252 261 258 265 269 263 258 268 283 288 281 276 280 271 268 262 266 272 269 260 240 241 261 256 250 242 250 240 243 235 235 224 234 222
238 243 245 246 251 256 246 264 257 245 254 262 267 272 258 256 250 271 282 282 283 284 273 267 271 272 270 264 264 256 267 273 236 221 239 240 256 254 241 233 231 236 231
243 255 257 262 261 260 258 261 260 252 253 267 272 273 272 268 257 272 282 285 286 286 277 272 280 281 279 270 262 251 266 257 219 225 257 268 243 235 267 285 267 248 249
254 260 259 251 266 252 242 252 254 257 257 261 263 264 267 267 269 272 263 263 270 283 289 282 269 272 271 261 219 242 198 227 230 236 246 262 249 262 256 199 269 8 335
246 263 272 264 265 272 256 256 255 259 249 264 262 258 259 261 254 266 280 276 264 261 271 269 272 261 253 244 201 208 191 180 217 197 188 223 242 228 231 203 132 50 254
253 263 260 264 270 269 274 283 267 271 275 276 277 276 269 274 286 287 287 285 284 282 276 263 260 250 231 212 219 219 194 203 212 197 194 226 236 204 228 174 93 106 208
234 251 256 261 270 272 270 270 282 288 280 280 281 282 284 283 287 289 289 288 283 282 263 254 247 238 226 209 209 221 223 206 183 193 203 224 194 169 188 161 145 132 315
236 239 244 260 260 265 267 269 269 276 285 284 273 276 279 281 286 290 291 290 282 267 257 254 238 228 212 207 193 200 183 180 197 192 208 207 169 171 154 187 189 157 180
237 236 223 245 255 260 266 267 268 273 272 277 285 275 273 279 289 290 288 274 267 260 256 253 215 195 206 202 182 179 175 189 190 184 201 174 163 159 141 171 148 155 127
241 241 239 255 269 269 269 271 273 270 270 270 271 273 279 277 274 274 264 268 270 244 248 270 223 203 203 189 177 171 170 174 189 193 182 161 158 151 155 165 173 150 181
244 231 240 265 270 274 273 270 270 271 271 271 270 269 275 279 283 278 276 269 265 274 256 246 223 210 197 183 164 166 171 186 190 185 165 154 143 148 147 131 142 134 130
251 267 264 267 273 272 271 272 273 272 272 273 275 273 283 287 277 272 272 269 266 262 259 247 225 209 195 185 176 172 177 182 179 172 151 140 138 129 134 129 127 127 100
254 268 278 277 274 276 276 273 272 271 273 273 275 278 276 269 269 267 266 269 266 271 252 229 228 197 178 175 172 174 176 182 177 156 145 142 141 142 141 138 144 111 91
258 264 275 277 277 273 272 272 270 269 266 268 269 270 271 269 267 268 270 268 266 266 260 216 207 197 176 169 166 171 154 140 152 149 145 144 139 133 126 120 133 104 114
260 275 275 275 274 273 276 271 270 271 267 262 264 264 267 269 270 270 269 268 268 268 231 198 190 181 177 168 164 160 157 150 140 136 135 133 136 137 134 129 125 102 104
271 272 273 274 272 272 271 274 273 273 268 264 263 261 264 269 272 271 274 272 273 267 205 183 175 168 162 157 155 151 145 143 135 130 131 131 133 129 128 124 119 107 113